Location: Cantaing
(50.1487°N, 3.1675°E)
Time: 08:43:40
(UTC+00:00)

Cosmos 921 Rocket - Pass Details

Date: 14 January 2026
Orbit: 564 x 620 km, 75.8° (Epoch: 17 February)

Event Time Altitude Azimuth Distance (km) Brightness Sun altitude
Rises 06:18:49 0° 216° (SW) 2,836 6.3 -12.7°
Reaches altitude 10° 06:21:08 10° 223° (SW) 1,928 5.4 -12.4°
Maximum altitude 06:25:15 45° 296° (WNW) 811 3.2 -11.7°
Drops below altitude 10° 06:29:21 10° 10° (N) 1,909 5.5 -11.1°
Sets 06:31:38 0° 17° (NNE) 2,804 6.4 -10.8°
